Location: Oberwangen
(47.4286°N, 8.9679°E)
Time: 15:21:53
(UTC+00:00)

Cosmos 1607 - Pass Details

Date: 20 June 2021
Orbit: 911 x 991 km, 65.0° (Epoch: 03 August)

Event Time Altitude Azimuth Distance (km) Brightness Sun altitude
Rises 22:00:09 0° 321° (NW) 3,702 8.5 -16.5°
Reaches altitude 10° 22:02:45 10° 321° (NW) 2,744 7.5 -16.7°
Maximum altitude 22:09:11 80° 236° (SW) 988 4.0 -17.1°
Enters shadow 22:12:53 27° 152° (SSE) 1,767 4.8 -17.2°
